Location: Boitzum
(52.1496°N, 9.6943°E)
Time: 00:32:07
(UTC+00:00)

Cosmos 540 Rocket - Pass Details

Date: 13 January 2026
Orbit: 736 x 746 km, 74.1° (Epoch: 9 February)

Event Time Altitude Azimuth Distance (km) Brightness Sun altitude
Exits shadow 06:41:13 - 330° (NNW) 2,894 6.0 -6.5°
Reaches altitude 10° 06:42:53 10° 326° (NNW) 2,253 5.4 -6.3°
Maximum altitude 06:47:47 50° 253° (WSW) 939 3.7 -5.6°
Drops below altitude 10° 06:52:40 10° 179° (S) 2,239 6.4 -5.0°
Sets 06:55:04 0° 174° (S) 3,159 7.2 -4.7°
